#timestamp,LO_Frequency,Hit,StdDev 
1502089215.0,286046997.7,N,2.0
1502089215.9,286046997.7,N,2.0
1502089235.8,286046997.9,N,1.9
1502089255.6,286046997.3,N,1.9
1502089275.5,286046998.4,N,1.8
1502089295.3,286046998.3,N,1.8
1502089315.1,286046999.5,N,1.8
1502089335.9,286046999.1,N,1.7
1502089355.7,286046998.8,N,1.7
1502089375.6,286046996.6,N,1.7
1502089395.4,286046997.3,N,1.7
1502089415.2,286046996.8,N,1.7
1502089435.1,286046995.6,N,1.8
1502089436.0,286046995.6,N,1.8
1502089455.8,286046995.8,N,1.9
1502089475.6,286046996.2,N,1.9
1502089495.5,286046995.7,N,1.9
1502089515.3,286046996.1,N,1.9
1502089535.2,286046995.8,N,1.9
1502089555.0,286046995.6,N,1.6
1502089555.9,286046995.6,N,1.5
1502089575.8,286046995.1,Y,0.0
1502089595.6,286046998.7,P,0.6
1502089615.4,286047000.7,N,1.3
1502089635.3,286046998.8,N,1.1
1502089655.1,286047000.5,N,1.2
1502089675.8,286047001.0,N,1.3
1502089695.7,286046998.5,N,1.2
1502089715.5,286047000.9,N,1.3
1502089735.4,286047001.0,N,1.3
1502089755.2,286046998.8,N,1.2
1502089775.0,286046996.8,N,1.4
1502089775.9,286046996.8,N,1.5
1502089795.8,286046999.1,N,1.5
1502089815.6,286046996.9,N,1.5
1502089835.5,286046998.8,N,1.5
1502089855.3,286046999.3,N,1.4
1502089875.1,286046998.4,N,1.4
1502089895.9,286046998.2,N,1.4
1502089915.7,286046998.2,N,1.4
1502089935.6,286047000.0,N,1.3
1502089955.4,286047002.1,N,1.5
1502089975.2,286047002.6,N,1.6
1502089995.1,286047003.8,N,1.8
1502089996.0,286047003.8,N,2.0
1502090015.8,286047001.6,N,2.0
1502090035.7,286046999.7,N,1.9
1502090055.5,286047002.8,N,2.0
1502090075.3,286047004.1,N,2.1
1502090095.2,286047004.4,N,2.2
1502090115.0,286047003.5,N,2.3
1502090115.9,286047003.5,N,2.3
1502090135.7,286047001.7,N,2.3
1502090155.6,286047001.7,N,2.3
1502090175.4,286047001.8,N,2.3
1502090195.3,286047004.4,N,2.4
1502090215.1,286047003.6,N,2.4
1502090235.8,286047004.4,N,2.5
1502090255.7,286047002.1,N,2.5
1502090275.5,286047001.8,N,2.5
1502090295.4,286047001.6,N,2.4
1502090315.2,286047002.3,N,2.3
1502090335.0,286046999.8,N,2.1
1502090335.9,286046999.8,N,2.1
1502090355.8,286047000.7,N,1.9
1502090375.6,286047000.4,N,1.9
1502090395.5,286047000.3,N,1.9
1502090415.3,286046999.8,N,1.8
1502090435.1,286047002.8,N,1.7
1502090455.9,286046998.2,N,1.7
1502090475.7,286046999.6,N,1.7
1502090495.5,286046999.1,N,1.8
1502090515.4,286046999.1,N,1.8
1502090535.2,286046998.7,N,1.9
1502090555.1,286046999.4,N,1.8
1502090556.0,286046999.4,N,1.9
1502090575.8,286046999.5,N,1.9
1502090595.6,286046996.5,N,2.1
1502090615.5,286046996.9,N,2.1
1502090635.3,286046996.6,N,2.1
1502090655.2,286046998.9,N,2.1
1502090675.9,286046996.6,N,2.1
1502090695.7,286046999.4,N,2.1
1502090715.6,286046996.8,N,2.2
1502090735.4,286046998.8,N,2.2
1502090755.3,286046996.9,N,2.1
1502090775.1,286046999.6,N,1.9
1502090776.0,286046999.6,N,1.7
1502090795.8,286046996.6,N,1.7
1502090815.7,286046999.5,N,1.6
1502090835.5,286046998.6,N,1.6
1502090855.4,286047001.0,N,1.5
1502090875.2,286047002.7,N,1.6
1502090895.0,286047002.5,N,1.7
1502090895.9,286047002.5,N,1.8
1502090915.8,286047004.3,N,2.0
1502090935.6,286047001.9,N,2.1
1502090955.5,286047002.0,N,2.1
1502090975.3,286047001.3,N,2.1
1502090995.1,286047003.7,N,2.2
1502091015.9,286047002.9,N,2.3
1502091035.7,286047003.3,N,2.4
1502091055.5,286047003.2,N,2.4
1502091075.4,286047004.8,N,2.6
1502091095.2,286047004.6,N,2.7
1502091115.1,286047005.0,N,2.8
1502091116.0,286047005.0,N,2.9
1502091135.8,286047007.2,N,3.0
1502091155.7,286047007.3,N,3.1
1502091175.5,286047006.7,N,3.1
1502091195.3,286047006.4,N,3.2
1502091215.2,286047008.8,N,3.2
1502091235.0,286047008.9,N,3.4
1502091235.9,286047008.9,N,3.4
1502091255.8,286047008.6,N,3.4
1502091275.6,286047006.7,N,3.2
1502091295.4,286047010.7,Y,0.0
1502091315.3,286047004.9,P,0.5
1502091335.1,286047004.8,P,0.5
1502091355.9,286047004.1,P,0.5
1502091375.7,286047001.5,Y,0.0
1502091395.5,286046998.9,P,2.8
1502091415.4,286047000.8,N,2.3
1502091435.2,286047002.7,N,2.1
1502091455.1,286047004.3,N,2.1
1502091456.0,286047004.3,N,2.1
1502091475.8,286047002.0,N,1.9
1502091495.6,286047002.1,N,1.8
1502091515.5,286047001.0,N,1.8
1502091535.3,286047001.0,N,1.7
1502091555.2,286047001.2,N,1.7
1502091575.9,286047000.4,N,1.7
1502091595.7,286047000.7,N,1.6
1502091615.6,286046998.1,N,1.8
1502091635.4,286047000.2,N,1.8
1502091655.2,286047002.2,N,1.8
1502091675.1,286047000.3,N,1.7
1502091676.0,286047000.3,N,1.7
1502091695.8,286047000.4,N,1.7
1502091715.7,286046999.9,N,1.7
1502091735.5,286046998.4,N,1.7
1502091755.3,286046998.5,N,1.8
1502091775.2,286047000.8,N,1.7
1502091795.0,286047000.4,N,1.7
1502091795.9,286047000.4,N,1.7
1502091815.8,286047001.8,N,1.7
1502091835.6,286047003.5,N,1.7
1502091855.4,286047005.0,N,1.8
1502091875.3,286047004.6,N,1.9
1502091895.1,286047006.8,Y,0.0
1502091915.9,286047003.5,P,1.1
1502091935.7,286047003.8,P,1.1
1502091955.5,286047002.4,N,1.0
1502091975.4,286047002.7,N,0.9
1502091995.2,286047001.9,N,0.9
1502092015.0,286046999.7,N,1.3
1502092016.0,286046999.7,N,1.5
1502092035.8,286047000.3,N,1.5
1502092055.6,286046999.9,N,1.5
1502092075.5,286046999.8,N,1.5
1502092095.3,286047002.3,N,1.5
1502092115.1,286047000.2,N,1.4
1502092135.9,286046998.5,N,1.6
1502092155.7,286046996.6,N,1.9
1502092175.6,286046999.5,N,1.9
1502092195.4,286046999.1,N,1.9
1502092215.2,286046997.3,N,2.0
1502092235.1,286046996.7,N,2.1
1502092236.0,286046996.7,N,2.2
1502092255.8,286046995.1,N,2.4
1502092275.7,286046996.1,N,2.4
1502092295.5,286046996.4,N,2.5
1502092315.3,286046993.6,N,2.7
1502092335.2,286046993.3,N,2.9
1502092355.0,286046995.6,N,2.9
1502092355.9,286046995.6,N,2.9
1502092375.8,286046995.7,N,2.9
1502092395.6,286046993.4,N,3.0
1502092415.4,286046994.1,N,3.1
1502092435.3,286046993.5,N,3.2
1502092455.1,286046996.3,N,3.0
1502092475.9,286046994.9,N,2.9
1502092495.7,286046997.6,N,2.7
1502092515.5,286046996.6,N,2.5
1502092535.4,286047001.1,N,2.5
1502092555.2,286046996.9,N,2.4
1502092575.1,286046998.6,N,2.4
1502092576.0,286046998.6,N,2.3
1502092595.8,286046999.0,N,2.3
1502092615.6,286046998.9,N,2.3
1502092635.5,286046999.0,N,2.1
1502092655.3,286046996.6,N,2.0
1502092675.2,286046996.9,N,2.0
1502092695.9,286046999.0,N,2.0
1502092715.7,286046995.3,N,2.0
1502092735.6,286046996.8,N,1.9
1502092755.4,286046995.1,N,1.9
1502092775.2,286046995.3,N,1.9
1502092795.1,286046996.4,N,1.9
1502092796.0,286046996.4,N,1.9
